This is the latest recevied weather packets stored in our database for station/object EA1CUE-WX. If no packets are shown the sender has not sent any weather packets the latest 10 day(s).
| Time | Temp. | Humidity | Pressure | Rain* | Wind** | Luminosity | Snow |
|---|---|---|---|---|---|---|---|
| 1787425087 | 22.78° C | 47% | 1015.4 hPa | 0 mm | - | - | - |
| 1787424787 | 22.78° C | 47% | 1015.4 hPa | 0 mm | - | - | - |
| 1787424487 | 23.33° C | 47% | 1015.4 hPa | 0 mm | - | - | - |
| 1787424187 | 23.33° C | 47% | 1015.3 hPa | 0 mm | - | - | - |
| 1787423887 | 23.89° C | 46% | 1015.3 hPa | 0 mm | - | - | - |
| 1787423587 | 23.89° C | 46% | 1015.2 hPa | 0 mm | - | - | - |
| 1787423287 | 23.89° C | 46% | 1015.4 hPa | 0 mm | - | - | - |
| 1787422987 | 24.44° C | 45% | 1015.2 hPa | 0 mm | - | - | - |
| 1787422687 | 25° C | 44% | 1015.2 hPa | 0 mm | - | - | - |
| 1787422387 | 25.56° C | 43% | 1015.2 hPa | 0 mm | - | - | - |
| 1787422087 | 26.11° C | 41% | 1015.1 hPa | 0 mm | - | - | - |
| 1787421787 | 26.11° C | 39% | 1015.1 hPa | 0 mm | - | - | - |
| 1787421487 | 26.67° C | 37% | 1015 hPa | 0 mm | - | - | - |
| 1787421187 | 27.22° C | 32% | 1014.9 hPa | 0 mm | - | - | - |
| 1787420887 | 27.78° C | 23% | 1014.9 hPa | 0 mm | - | - | - |
| 1787420587 | 28.33° C | 22% | 1014.7 hPa | 0 mm | - | - | - |
| 1787420287 | 28.33° C | 23% | 1014.6 hPa | 0 mm | - | - | - |
| 1787419987 | 28.33° C | 24% | 1014.5 hPa | 0 mm | - | - | - |
| 1787419687 | 28.33° C | 23% | 1014.5 hPa | 0 mm | - | - | - |
| 1787419387 | 27.78° C | 24% | 1014.4 hPa | 0 mm | - | - | - |
| 1787419087 | 27.78° C | 25% | 1014.4 hPa | 0 mm | - | - | - |
| 1787418787 | 27.78° C | 24% | 1014.3 hPa | 0 mm | - | - | - |
| 1787418487 | 27.78° C | 23% | 1014.3 hPa | 0 mm | - | - | - |
| 1787418187 | 28.33° C | 24% | 1014.2 hPa | 0 mm | - | - | - |
| 1787417887 | 27.78° C | 24% | 1014.1 hPa | 0 mm | - | - | - |
* Rain latest hour (hover to see other rain measurements)
** Current wind speed in m/s (hover to see current wind gust speed)